When you browse on this site, cookies collect data to enhance your experience and personalize the content and advertising you see.
Visit our Privacy Policy to learn more. By continuing to use the site, you agree to this use of cookies and data.
  • En España
  • Lista de países
  • Para 7 días
  • Temperatura del agua
  • El tiempo en el mapa
  • Informadores
  • user-avatar
    Iniciar sesión

    Tiempo cada hora Loncoche

    Hoy, 22 Febrero, Sábado

    Tiempo Temperatura Precipitaciones Viento Presión Humedad
    00:00 +16°C° 0 mm 1 mps 751 mmHg 45%
    01:00 +15°C° 0 mm 1 mps 751 mmHg 46%
    02:00 +15°C° 0 mm 1 mps 751 mmHg 47%
    03:00 +14°C° 0 mm 1 mps 751 mmHg 47%
    04:00 +13°C° 0 mm 1 mps 751 mmHg 47%
    05:00 +15°C° 0 mm 1 mps 751 mmHg 46%
    06:00 +16°C° 0 mm 1 mps 751 mmHg 44%
    07:00 +16°C° 0 mm 0 mps 751 mmHg 42%
    08:00 +20°C° 0 mm 0 mps 751 mmHg 35%
    09:00 +24°C° 0 mm 0 mps 751 mmHg 28%
    10:00 +28°C° 0 mm 0 mps 751 mmHg 21%
    11:00 +30°C° 0 mm 0 mps 751 mmHg 20%
    12:00 +33°C° 0 mm 1 mps 750 mmHg 19%
    13:00 +34°C° 0 mm 1 mps 749 mmHg 18%
    14:00 +34°C° 0 mm 2 mps 749 mmHg 20%
    15:00 +32°C° 0 mm 2 mps 749 mmHg 22%
    16:00 +31°C° 0 mm 2 mps 749 mmHg 24%
    17:00 +27°C° 0 mm 2 mps 749 mmHg 36%
    18:00 +24°C° 0 mm 1 mps 749 mmHg 48%
    19:00 +20°C° 0 mm 1 mps 749 mmHg 60%
    20:00 +18°C° 0 mm 1 mps 749 mmHg 68%
    21:00 +14°C° 0 mm 0 mps 750 mmHg 76%
    22:00 +12°C° 0 mm 0 mps 750 mmHg 84%
    23:00 +12°C° 0 mm 0 mps 749 mmHg 85%

    Mañana, 23 Febrero, Domingo

    Tiempo Temperatura Precipitaciones Viento Presión Humedad
    00:00 +11°C° 0 mm 0 mps 749 mmHg 86%
    01:00 +11°C° 0 mm 0 mps 749 mmHg 87%
    02:00 +11°C° 0 mm 0 mps 749 mmHg 87%
    03:00 +10°C° 0 mm 0 mps 749 mmHg 88%
    04:00 +10°C° 0 mm 0 mps 749 mmHg 88%
    05:00 +12°C° 0 mm 0 mps 749 mmHg 81%
    06:00 +13°C° 0 mm 0 mps 749 mmHg 74%
    07:00 +14°C° 0 mm 0 mps 749 mmHg 68%
    08:00 +18°C° 0 mm 0 mps 749 mmHg 56%
    09:00 +23°C° 0 mm 1 mps 749 mmHg 45%
    10:00 +27°C° 0 mm 1 mps 749 mmHg 33%
    11:00 +28°C° 0 mm 1 mps 749 mmHg 31%
    12:00 +29°C° 0 mm 2 mps 748 mmHg 28%
    13:00 +30°C° 0 mm 2 mps 748 mmHg 25%
    14:00 +29°C° 0 mm 3 mps 748 mmHg 27%
    15:00 +27°C° 0 mm 3 mps 748 mmHg 30%
    16:00 +26°C° 0 mm 4 mps 748 mmHg 32%
    17:00 +21°C° 0 mm 3 mps 748 mmHg 46%
    18:00 +18°C° 0 mm 2 mps 749 mmHg 61%
    19:00 +14°C° 0 mm 1 mps 749 mmHg 75%
    20:00 +13°C° 0 mm 1 mps 749 mmHg 79%
    21:00 +12°C° 0 mm 1 mps 750 mmHg 82%
    22:00 +10°C° 0 mm 0 mps 751 mmHg 85%
    23:00 +9°C° 0 mm 0 mps 751 mmHg 88%

    Pasado mañana, 24 Febrero, Lunes

    Tiempo Temperatura Precipitaciones Viento Presión Humedad
    00:00 +8°C° 0 mm 0 mps 751 mmHg 90%
    01:00 +8°C° 0 mm 0 mps 751 mmHg 93%
    02:00 +8°C° 0 mm 0 mps 751 mmHg 95%
    03:00 +7°C° 0 mm 0 mps 752 mmHg 96%
    04:00 +7°C° 0 mm 0 mps 752 mmHg 98%
    05:00 +8°C° 0 mm 0 mps 752 mmHg 93%
    06:00 +9°C° 0 mm 0 mps 752 mmHg 88%
    07:00 +10°C° 0 mm 0 mps 753 mmHg 84%
    08:00 +13°C° 0 mm 0 mps 753 mmHg 71%
    09:00 +16°C° 0 mm 1 mps 753 mmHg 58%
    10:00 +19°C° 0 mm 1 mps 753 mmHg 44%
    11:00 +19°C° 0 mm 2 mps 752 mmHg 43%
    12:00 +20°C° 0 mm 2 mps 752 mmHg 41%
    13:00 +21°C° 0 mm 2 mps 752 mmHg 39%
    14:00 +21°C° 0 mm 2 mps 752 mmHg 42%
    15:00 +21°C° 0 mm 2 mps 752 mmHg 45%
    16:00 +20°C° 0 mm 2 mps 752 mmHg 48%
    17:00 +18°C° 0 mm 2 mps 752 mmHg 59%
    18:00 +16°C° 0 mm 1 mps 752 mmHg 70%
    19:00 +14°C° 0 mm 1 mps 753 mmHg 81%
    20:00 +13°C° 0 mm 1 mps 753 mmHg 87%
    21:00 +11°C° 0 mm 0 mps 753 mmHg 92%
    22:00 +10°C° 0 mm 0 mps 754 mmHg 97%
    23:00 +10°C° 0 mm 0 mps 754 mmHg 97%

    25 Febrero, Martes

    Tiempo Temperatura Precipitaciones Viento Presión Humedad
    00:00 +9°C° 0 mm 0 mps 754 mmHg 98%
    01:00 +9°C° 0 mm 0 mps 754 mmHg 98%
    02:00 +9°C° 0 mm 0 mps 754 mmHg 98%
    03:00 +8°C° 0 mm 0 mps 754 mmHg 98%
    04:00 +8°C° 0 mm 0 mps 754 mmHg 98%
    05:00 +9°C° 0 mm 0 mps 754 mmHg 96%
    06:00 +10°C° 0 mm 1 mps 754 mmHg 93%
    07:00 +11°C° 0 mm 1 mps 754 mmHg 91%
    08:00 +13°C° 0 mm 1 mps 754 mmHg 77%
    09:00 +16°C° 0 mm 2 mps 754 mmHg 63%
    10:00 +18°C° 0 mm 2 mps 753 mmHg 50%
    11:00 +20°C° 0 mm 2 mps 753 mmHg 45%
    12:00 +21°C° 0 mm 3 mps 753 mmHg 40%
    13:00 +24°C° 0 mm 3 mps 753 mmHg 35%
    14:00 +24°C° 0 mm 3 mps 753 mmHg 35%
    15:00 +24°C° 0 mm 3 mps 752 mmHg 35%
    16:00 +24°C° 0 mm 3 mps 752 mmHg 36%
    17:00 +21°C° 0 mm 2 mps 752 mmHg 44%
    18:00 +18°C° 0 mm 2 mps 753 mmHg 52%
    19:00 +15°C° 0 mm 1 mps 753 mmHg 60%
    20:00 +14°C° 0 mm 1 mps 753 mmHg 65%
    21:00 +12°C° 0 mm 1 mps 754 mmHg 69%
    22:00 +11°C° 0 mm 1 mps 754 mmHg 73%
    23:00 +10°C° 0 mm 1 mps 754 mmHg 80%

    26 Febrero, Miércoles

    Tiempo Temperatura Precipitaciones Viento Presión Humedad
    00:00 +9°C° 0 mm 1 mps 753 mmHg 86%
    01:00 +9°C° 0 mm 1 mps 753 mmHg 93%
    02:00 +8°C° 0 mm 1 mps 753 mmHg 95%
    03:00 +8°C° 0 mm 1 mps 753 mmHg 96%
    04:00 +8°C° 0 mm 1 mps 753 mmHg 98%
    05:00 +9°C° 0 mm 1 mps 752 mmHg 95%
    06:00 +9°C° 0 mm 1 mps 752 mmHg 91%
    07:00 +10°C° 0 mm 1 mps 752 mmHg 87%
    08:00 +13°C° 0 mm 1 mps 752 mmHg 76%
    09:00 +15°C° 0 mm 1 mps 752 mmHg 65%
    10:00 +17°C° 0 mm 2 mps 751 mmHg 54%
    11:00 +20°C° 0 mm 2 mps 751 mmHg 48%
    12:00 +23°C° 0 mm 2 mps 750 mmHg 41%
    13:00 +26°C° 0 mm 2 mps 750 mmHg 34%
    14:00 +26°C° 0 mm 2 mps 750 mmHg 34%
    15:00 +27°C° 0 mm 2 mps 749 mmHg 35%
    16:00 +27°C° 0 mm 2 mps 749 mmHg 35%
    17:00 +24°C° 0 mm 2 mps 749 mmHg 45%
    18:00 +21°C° 0 mm 1 mps 749 mmHg 55%
    19:00 +19°C° 0 mm 1 mps 750 mmHg 65%
    20:00 +16°C° 0 mm 1 mps 750 mmHg 70%
    21:00 +14°C° 0 mm 1 mps 750 mmHg 75%
    22:00 +13°C° 0 mm 1 mps 750 mmHg 80%
    23:00 +12°C° 0 mm 1 mps 750 mmHg 84%

    27 Febrero, Jueves

    Tiempo Temperatura Precipitaciones Viento Presión Humedad
    00:00 +11°C° 0 mm 1 mps 749 mmHg 89%
    01:00 +10°C° 0 mm 1 mps 749 mmHg 93%
    02:00 +10°C° 0 mm 1 mps 749 mmHg 94%
    03:00 +10°C° 0 mm 1 mps 749 mmHg 96%
    04:00 +10°C° 0 mm 1 mps 749 mmHg 98%
    05:00 +11°C° 0 mm 1 mps 749 mmHg 95%
    06:00 +12°C° 0 mm 1 mps 749 mmHg 91%
    07:00 +13°C° 0 mm 1 mps 749 mmHg 88%
    08:00 +15°C° 0 mm 1 mps 749 mmHg 78%
    09:00 +18°C° 0 mm 2 mps 749 mmHg 68%
    10:00 +20°C° 0 mm 2 mps 749 mmHg 58%
    11:00 +23°C° 0 mm 2 mps 749 mmHg 53%
    12:00 +25°C° 0 mm 2 mps 749 mmHg 48%
    13:00 +27°C° 0 mm 2 mps 749 mmHg 42%
    14:00 +27°C° 0 mm 2 mps 749 mmHg 42%
    15:00 +27°C° 0 mm 2 mps 749 mmHg 42%
    16:00 +27°C° 0 mm 3 mps 749 mmHg 42%
    17:00 +25°C° 0 mm 2 mps 749 mmHg 49%
    18:00 +21°C° 0 mm 2 mps 750 mmHg 55%
    19:00 +20°C° 0 mm 1 mps 750 mmHg 62%
    20:00 +18°C° 0 mm 1 mps 750 mmHg 67%
    21:00 +16°C° 0 mm 1 mps 751 mmHg 72%
    22:00 +14°C° 0 mm 1 mps 751 mmHg 77%
    23:00 +13°C° 0 mm 1 mps 751 mmHg 84%
    Mostrar más